Location: *
(48.7358°N, 0.3111°E)
Time: 16:58:21
(UTC+00:00)

SL-16 R/B - Pass Details

Date: 22 October 2019
Orbit: 840 x 850 km, 71.0° (Epoch: 16 November)

Event Time Altitude Azimuth Distance (km) Brightness Sun altitude
Exits shadow 05:05:14 - 215° (SW) 3,181 4.9 -14.5°
Reaches altitude 10° 05:07:09 10° 218° (SW) 2,457 4.3 -14.2°
Maximum altitude 05:12:46 68° 301° (WNW) 911 2.2 -13.2°
Drops below altitude 10° 05:18:27 10° 24° (NNE) 2,480 4.9 -12.3°
Sets 05:20:56 0° 28° (NNE) 3,421 5.7 -11.9°
